Volver al catálogo

DELTA 1 DEB

ActivoSSO
NORAD 13826·DEBRIS·🇺🇸 United States

Lanzado Mar 5, 1978 desde Vandenberg Space Force Base

Loading…

Próximos Pases (próximas 24 horas)

TLE

ActualizadoSource: Space-Track

Época: Sep 14, 2026, 11:41 UTC

1 13826U 78026FV  26257.48723766  .00004478  00000-0  50671-3 0  9993
2 13826  98.2387 280.5601 0026037 165.2704 194.9275 14.86740651315552

Sigue DELTA 1 DEB en tiempo real con AllMySat

Download on the App Store